Date Hour Ending, MW ,,,,,,,,,,,,,,,,,
10/01/2018 1:00,-56,,,,,,,,,,,,,,,,,
10/01/2018 2:00,-104,,,,,,,,,,,,,,,,,
10/01/2018 3:00,-87,,,,,,,,,,,,,,,,,
10/01/2018 4:00,-70,,,,,,,,,,,,,,,,,
10/01/2018 5:00,-55,,,,,,,,,,,,,,,,,
10/01/2018 6:00,-46,,,,,,,,,,,,,,,,,
10/01/2018 7:00,-70,,,,,,,,,,,,,,,,,
10/01/2018 8:00,-133,,,,,,,,,,,,,,,,,
10/01/2018 9:00,-174,,,,,,,,,,,,,,,,,
10/01/2018 10:00,-175,,,,,,,,,,,,,,,,,
10/01/2018 11:00,-163,,,,,,,,,,,,,,,,,
10/01/2018 12:00,-162,,,,,,,,,,,,,,,,,
10/01/2018 13:00,-164,,,,,,,,,,,,,,,,,
10/01/2018 14:00,-155,,,,,,,,,,,,,,,,,
10/01/2018 15:00,-164,,,,,,,,,,,,,,,,,
10/01/2018 16:00,-164,,,,,,,,,,,,,,,,,
10/01/2018 17:00,-168,,,,,,,,,,,,,,,,,
10/01/2018 18:00,-163,,,,,,,,,,,,,,,,,
10/01/2018 19:00,-165,,,,,,,,,,,,,,,,,
10/01/2018 20:00,-164,,,,,,,,,,,,,,,,,
10/01/2018 21:00,-163,,,,,,,,,,,,,,,,,
10/01/2018 22:00,-162,,,,,,,,,,,,,,,,,
10/01/2018 23:00,-132,,,,,,,,,,,,,,,,,
10/02/2018 0:00,-119,,,,,,,,,,,,,,,,,
10/02/2018 1:00,-159,,,,,,,,,,,,,,,,,
10/02/2018 2:00,-153,,,,,,,,,,,,,,,,,
10/02/2018 3:00,-150,,,,,,,,,,,,,,,,,
10/02/2018 4:00,-151,,,,,,,,,,,,,,,,,
10/02/2018 5:00,-149,,,,,,,,,,,,,,,,,
10/02/2018 6:00,-132,,,,,,,,,,,,,,,,,
10/02/2018 7:00,-99,,,,,,,,,,,,,,,,,
10/02/2018 8:00,-154,,,,,,,,,,,,,,,,,
10/02/2018 9:00,-139,,,,,,,,,,,,,,,,,
10/02/2018 10:00,-137,,,,,,,,,,,,,,,,,
10/02/2018 11:00,-140,,,,,,,,,,,,,,,,,
10/02/2018 12:00,-137,,,,,,,,,,,,,,,,,
10/02/2018 13:00,-132,,,,,,,,,,,,,,,,,
10/02/2018 14:00,-143,,,,,,,,,,,,,,,,,
10/02/2018 15:00,-146,,,,,,,,,,,,,,,,,
10/02/2018 16:00,-157,,,,,,,,,,,,,,,,,
10/02/2018 17:00,-157,,,,,,,,,,,,,,,,,
10/02/2018 18:00,-141,,,,,,,,,,,,,,,,,
10/02/2018 19:00,-122,,,,,,,,,,,,,,,,,
10/02/2018 20:00,-93,,,,,,,,,,,,,,,,,
10/02/2018 21:00,-96,,,,,,,,,,,,,,,,,
10/02/2018 22:00,-86,,,,,,,,,,,,,,,,,
10/02/2018 23:00,-5,,,,,,,,,,,,,,,,,
10/03/2018 0:00,-12,,,,,,,,,,,,,,,,,
10/03/2018 1:00,0,,,,,,,,,,,,,,,,,
10/03/2018 2:00,66,,,,,,,,,,,,,,,,,
10/03/2018 3:00,75,,,,,,,,,,,,,,,,,
10/03/2018 4:00,75,,,,,,,,,,,,,,,,,
10/03/2018 5:00,70,,,,,,,,,,,,,,,,,
10/03/2018 6:00,72,,,,,,,,,,,,,,,,,
10/03/2018 7:00,59,,,,,,,,,,,,,,,,,
10/03/2018 8:00,30,,,,,,,,,,,,,,,,,
10/03/2018 9:00,-7,,,,,,,,,,,,,,,,,
10/03/2018 10:00,-12,,,,,,,,,,,,,,,,,
10/03/2018 11:00,-5,,,,,,,,,,,,,,,,,
10/03/2018 12:00,-7,,,,,,,,,,,,,,,,,
10/03/2018 13:00,-45,,,,,,,,,,,,,,,,,
10/03/2018 14:00,-52,,,,,,,,,,,,,,,,,
10/03/2018 15:00,-30,,,,,,,,,,,,,,,,,
10/03/2018 16:00,-22,,,,,,,,,,,,,,,,,
10/03/2018 17:00,-42,,,,,,,,,,,,,,,,,
10/03/2018 18:00,-54,,,,,,,,,,,,,,,,,
10/03/2018 19:00,-46,,,,,,,,,,,,,,,,,
10/03/2018 20:00,-56,,,,,,,,,,,,,,,,,
10/03/2018 21:00,-50,,,,,,,,,,,,,,,,,
10/03/2018 22:00,6,,,,,,,,,,,,,,,,,
10/03/2018 23:00,12,,,,,,,,,,,,,,,,,
10/04/2018 0:00,16,,,,,,,,,,,,,,,,,
10/04/2018 1:00,7,,,,,,,,,,,,,,,,,
10/04/2018 2:00,24,,,,,,,,,,,,,,,,,
10/04/2018 3:00,30,,,,,,,,,,,,,,,,,
10/04/2018 4:00,13,,,,,,,,,,,,,,,,,
10/04/2018 5:00,33,,,,,,,,,,,,,,,,,
10/04/2018 6:00,25,,,,,,,,,,,,,,,,,
10/04/2018 7:00,-26,,,,,,,,,,,,,,,,,
10/04/2018 8:00,-43,,,,,,,,,,,,,,,,,
10/04/2018 9:00,-47,,,,,,,,,,,,,,,,,
10/04/2018 10:00,-50,,,,,,,,,,,,,,,,,
10/04/2018 11:00,-51,,,,,,,,,,,,,,,,,
10/04/2018 12:00,-55,,,,,,,,,,,,,,,,,
10/04/2018 13:00,-46,,,,,,,,,,,,,,,,,
10/04/2018 14:00,-69,,,,,,,,,,,,,,,,,
10/04/2018 15:00,-63,,,,,,,,,,,,,,,,,
10/04/2018 16:00,-52,,,,,,,,,,,,,,,,,
10/04/2018 17:00,-62,,,,,,,,,,,,,,,,,
10/04/2018 18:00,-61,,,,,,,,,,,,,,,,,
10/04/2018 19:00,-53,,,,,,,,,,,,,,,,,
10/04/2018 20:00,-60,,,,,,,,,,,,,,,,,
10/04/2018 21:00,-62,,,,,,,,,,,,,,,,,
10/04/2018 22:00,-60,,,,,,,,,,,,,,,,,
10/04/2018 23:00,-58,,,,,,,,,,,,,,,,,
10/05/2018 0:00,-60,,,,,,,,,,,,,,,,,
10/05/2018 1:00,-37,,,,,,,,,,,,,,,,,
10/05/2018 2:00,-34,,,,,,,,,,,,,,,,,
10/05/2018 3:00,-27,,,,,,,,,,,,,,,,,
10/05/2018 4:00,-21,,,,,,,,,,,,,,,,,
10/05/2018 5:00,-29,,,,,,,,,,,,,,,,,
10/05/2018 6:00,-22,,,,,,,,,,,,,,,,,
10/05/2018 7:00,4,,,,,,,,,,,,,,,,,
10/05/2018 8:00,-20,,,,,,,,,,,,,,,,,
10/05/2018 9:00,-2,,,,,,,,,,,,,,,,,
10/05/2018 10:00,-23,,,,,,,,,,,,,,,,,
10/05/2018 11:00,-28,,,,,,,,,,,,,,,,,
10/05/2018 12:00,-17,,,,,,,,,,,,,,,,,
10/05/2018 13:00,-41,,,,,,,,,,,,,,,,,
10/05/2018 14:00,-43,,,,,,,,,,,,,,,,,
10/05/2018 15:00,-87,,,,,,,,,,,,,,,,,
10/05/2018 16:00,-74,,,,,,,,,,,,,,,,,
10/05/2018 17:00,-82,,,,,,,,,,,,,,,,,
10/05/2018 18:00,-69,,,,,,,,,,,,,,,,,
10/05/2018 19:00,-48,,,,,,,,,,,,,,,,,
10/05/2018 20:00,-61,,,,,,,,,,,,,,,,,
10/05/2018 21:00,-62,,,,,,,,,,,,,,,,,
10/05/2018 22:00,-75,,,,,,,,,,,,,,,,,
10/05/2018 23:00,-99,,,,,,,,,,,,,,,,,
10/06/2018 0:00,-122,,,,,,,,,,,,,,,,,
10/06/2018 1:00,-152,,,,,,,,,,,,,,,,,
10/06/2018 2:00,-191,,,,,,,,,,,,,,,,,
10/06/2018 3:00,-164,,,,,,,,,,,,,,,,,
10/06/2018 4:00,-163,,,,,,,,,,,,,,,,,
10/06/2018 5:00,-163,,,,,,,,,,,,,,,,,
10/06/2018 6:00,-94,,,,,,,,,,,,,,,,,
10/06/2018 7:00,-92,,,,,,,,,,,,,,,,,
10/06/2018 8:00,-171,,,,,,,,,,,,,,,,,
10/06/2018 9:00,-193,,,,,,,,,,,,,,,,,
10/06/2018 10:00,-175,,,,,,,,,,,,,,,,,
10/06/2018 11:00,-170,,,,,,,,,,,,,,,,,
10/06/2018 12:00,-166,,,,,,,,,,,,,,,,,
10/06/2018 13:00,-162,,,,,,,,,,,,,,,,,
10/06/2018 14:00,-154,,,,,,,,,,,,,,,,,
10/06/2018 15:00,-154,,,,,,,,,,,,,,,,,
10/06/2018 16:00,-155,,,,,,,,,,,,,,,,,
10/06/2018 17:00,-167,,,,,,,,,,,,,,,,,
10/06/2018 18:00,-165,,,,,,,,,,,,,,,,,
10/06/2018 19:00,-165,,,,,,,,,,,,,,,,,
10/06/2018 20:00,-159,,,,,,,,,,,,,,,,,
10/06/2018 21:00,-164,,,,,,,,,,,,,,,,,
10/06/2018 22:00,-154,,,,,,,,,,,,,,,,,
10/06/2018 23:00,-148,,,,,,,,,,,,,,,,,
10/07/2018 0:00,-117,,,,,,,,,,,,,,,,,
10/07/2018 1:00,-150,,,,,,,,,,,,,,,,,
10/07/2018 2:00,-154,,,,,,,,,,,,,,,,,
10/07/2018 3:00,-151,,,,,,,,,,,,,,,,,
10/07/2018 4:00,-147,,,,,,,,,,,,,,,,,
10/07/2018 5:00,-151,,,,,,,,,,,,,,,,,
10/07/2018 6:00,-157,,,,,,,,,,,,,,,,,
10/07/2018 7:00,-171,,,,,,,,,,,,,,,,,
10/07/2018 8:00,-163,,,,,,,,,,,,,,,,,
10/07/2018 9:00,-166,,,,,,,,,,,,,,,,,
10/07/2018 10:00,-165,,,,,,,,,,,,,,,,,
10/07/2018 11:00,-163,,,,,,,,,,,,,,,,,
10/07/2018 12:00,-170,,,,,,,,,,,,,,,,,
10/07/2018 13:00,-162,,,,,,,,,,,,,,,,,
10/07/2018 14:00,-182,,,,,,,,,,,,,,,,,
10/07/2018 15:00,-189,,,,,,,,,,,,,,,,,
10/07/2018 16:00,-220,,,,,,,,,,,,,,,,,
10/07/2018 17:00,-224,,,,,,,,,,,,,,,,,
10/07/2018 18:00,-197,,,,,,,,,,,,,,,,,
10/07/2018 19:00,-193,,,,,,,,,,,,,,,,,
10/07/2018 20:00,-168,,,,,,,,,,,,,,,,,
10/07/2018 21:00,-171,,,,,,,,,,,,,,,,,
10/07/2018 22:00,-174,,,,,,,,,,,,,,,,,
10/07/2018 23:00,-150,,,,,,,,,,,,,,,,,
10/08/2018 0:00,-103,,,,,,,,,,,,,,,,,
10/08/2018 1:00,-8,,,,,,,,,,,,,,,,,
10/08/2018 2:00,-107,,,,,,,,,,,,,,,,,
10/08/2018 3:00,-110,,,,,,,,,,,,,,,,,
10/08/2018 4:00,-112,,,,,,,,,,,,,,,,,
10/08/2018 5:00,-111,,,,,,,,,,,,,,,,,
10/08/2018 6:00,-124,,,,,,,,,,,,,,,,,
10/08/2018 7:00,-135,,,,,,,,,,,,,,,,,
10/08/2018 8:00,-172,,,,,,,,,,,,,,,,,
10/08/2018 9:00,-185,,,,,,,,,,,,,,,,,
10/08/2018 10:00,-159,,,,,,,,,,,,,,,,,
10/08/2018 11:00,-158,,,,,,,,,,,,,,,,,
10/08/2018 12:00,-161,,,,,,,,,,,,,,,,,
10/08/2018 13:00,-136,,,,,,,,,,,,,,,,,
10/08/2018 14:00,-128,,,,,,,,,,,,,,,,,
10/08/2018 15:00,-141,,,,,,,,,,,,,,,,,
10/08/2018 16:00,-148,,,,,,,,,,,,,,,,,
10/08/2018 17:00,-138,,,,,,,,,,,,,,,,,
10/08/2018 18:00,-133,,,,,,,,,,,,,,,,,
10/08/2018 19:00,-141,,,,,,,,,,,,,,,,,
10/08/2018 20:00,-142,,,,,,,,,,,,,,,,,
10/08/2018 21:00,-138,,,,,,,,,,,,,,,,,
10/08/2018 22:00,-126,,,,,,,,,,,,,,,,,
10/08/2018 23:00,-123,,,,,,,,,,,,,,,,,
10/09/2018 0:00,-90,,,,,,,,,,,,,,,,,
10/09/2018 1:00,-118,,,,,,,,,,,,,,,,,
10/09/2018 2:00,-121,,,,,,,,,,,,,,,,,
10/09/2018 3:00,-67,,,,,,,,,,,,,,,,,
10/09/2018 4:00,-75,,,,,,,,,,,,,,,,,
10/09/2018 5:00,-69,,,,,,,,,,,,,,,,,
10/09/2018 6:00,-30,,,,,,,,,,,,,,,,,
10/09/2018 7:00,-97,,,,,,,,,,,,,,,,,
10/09/2018 8:00,-76,,,,,,,,,,,,,,,,,
10/09/2018 9:00,-72,,,,,,,,,,,,,,,,,
10/09/2018 10:00,-66,,,,,,,,,,,,,,,,,
10/09/2018 11:00,-119,,,,,,,,,,,,,,,,,
10/09/2018 12:00,-136,,,,,,,,,,,,,,,,,
10/09/2018 13:00,-137,,,,,,,,,,,,,,,,,
10/09/2018 14:00,-128,,,,,,,,,,,,,,,,,
10/09/2018 15:00,-125,,,,,,,,,,,,,,,,,
10/09/2018 16:00,-136,,,,,,,,,,,,,,,,,
10/09/2018 17:00,-93,,,,,,,,,,,,,,,,,
10/09/2018 18:00,-46,,,,,,,,,,,,,,,,,
10/09/2018 19:00,-71,,,,,,,,,,,,,,,,,
10/09/2018 20:00,-33,,,,,,,,,,,,,,,,,
10/09/2018 21:00,-40,,,,,,,,,,,,,,,,,
10/09/2018 22:00,-95,,,,,,,,,,,,,,,,,
10/09/2018 23:00,-64,,,,,,,,,,,,,,,,,
10/10/2018 0:00,-62,,,,,,,,,,,,,,,,,
10/10/2018 1:00,-53,,,,,,,,,,,,,,,,,
10/10/2018 2:00,-54,,,,,,,,,,,,,,,,,
10/10/2018 3:00,-57,,,,,,,,,,,,,,,,,
10/10/2018 4:00,-55,,,,,,,,,,,,,,,,,
10/10/2018 5:00,-55,,,,,,,,,,,,,,,,,
10/10/2018 6:00,-9,,,,,,,,,,,,,,,,,
10/10/2018 7:00,0,,,,,,,,,,,,,,,,,
10/10/2018 8:00,-93,,,,,,,,,,,,,,,,,
10/10/2018 9:00,-97,,,,,,,,,,,,,,,,,
10/10/2018 10:00,-98,,,,,,,,,,,,,,,,,
10/10/2018 11:00,-94,,,,,,,,,,,,,,,,,
10/10/2018 12:00,-94,,,,,,,,,,,,,,,,,
10/10/2018 13:00,-84,,,,,,,,,,,,,,,,,
10/10/2018 14:00,-117,,,,,,,,,,,,,,,,,
10/10/2018 15:00,-122,,,,,,,,,,,,,,,,,
10/10/2018 16:00,-115,,,,,,,,,,,,,,,,,
10/10/2018 17:00,-89,,,,,,,,,,,,,,,,,
10/10/2018 18:00,-59,,,,,,,,,,,,,,,,,
10/10/2018 19:00,-62,,,,,,,,,,,,,,,,,
10/10/2018 20:00,-83,,,,,,,,,,,,,,,,,
10/10/2018 21:00,-60,,,,,,,,,,,,,,,,,
10/10/2018 22:00,-52,,,,,,,,,,,,,,,,,
10/10/2018 23:00,-57,,,,,,,,,,,,,,,,,
10/11/2018 0:00,-52,,,,,,,,,,,,,,,,,
10/11/2018 1:00,-21,,,,,,,,,,,,,,,,,
10/11/2018 2:00,-60,,,,,,,,,,,,,,,,,
10/11/2018 3:00,-81,,,,,,,,,,,,,,,,,
10/11/2018 4:00,-60,,,,,,,,,,,,,,,,,
10/11/2018 5:00,-58,,,,,,,,,,,,,,,,,
10/11/2018 6:00,-72,,,,,,,,,,,,,,,,,
10/11/2018 7:00,-155,,,,,,,,,,,,,,,,,
10/11/2018 8:00,-158,,,,,,,,,,,,,,,,,
10/11/2018 9:00,-158,,,,,,,,,,,,,,,,,
10/11/2018 10:00,-156,,,,,,,,,,,,,,,,,
10/11/2018 11:00,-106,,,,,,,,,,,,,,,,,
10/11/2018 12:00,-114,,,,,,,,,,,,,,,,,
10/11/2018 13:00,-90,,,,,,,,,,,,,,,,,
10/11/2018 14:00,-69,,,,,,,,,,,,,,,,,
10/11/2018 15:00,-64,,,,,,,,,,,,,,,,,
10/11/2018 16:00,-59,,,,,,,,,,,,,,,,,
10/11/2018 17:00,-103,,,,,,,,,,,,,,,,,
10/11/2018 18:00,-61,,,,,,,,,,,,,,,,,
10/11/2018 19:00,-60,,,,,,,,,,,,,,,,,
10/11/2018 20:00,-52,,,,,,,,,,,,,,,,,
10/11/2018 21:00,-56,,,,,,,,,,,,,,,,,
10/11/2018 22:00,-27,,,,,,,,,,,,,,,,,
10/11/2018 23:00,-2,,,,,,,,,,,,,,,,,
10/12/2018 0:00,4,,,,,,,,,,,,,,,,,
10/12/2018 1:00,-96,,,,,,,,,,,,,,,,,
10/12/2018 2:00,-71,,,,,,,,,,,,,,,,,
10/12/2018 3:00,-69,,,,,,,,,,,,,,,,,
10/12/2018 4:00,-74,,,,,,,,,,,,,,,,,
10/12/2018 5:00,-65,,,,,,,,,,,,,,,,,
10/12/2018 6:00,-85,,,,,,,,,,,,,,,,,
10/12/2018 7:00,-55,,,,,,,,,,,,,,,,,
10/12/2018 8:00,-96,,,,,,,,,,,,,,,,,
10/12/2018 9:00,-151,,,,,,,,,,,,,,,,,
10/12/2018 10:00,-155,,,,,,,,,,,,,,,,,
10/12/2018 11:00,-148,,,,,,,,,,,,,,,,,
10/12/2018 12:00,-152,,,,,,,,,,,,,,,,,
10/12/2018 13:00,-120,,,,,,,,,,,,,,,,,
10/12/2018 14:00,-112,,,,,,,,,,,,,,,,,
10/12/2018 15:00,-143,,,,,,,,,,,,,,,,,
10/12/2018 16:00,-146,,,,,,,,,,,,,,,,,
10/12/2018 17:00,-120,,,,,,,,,,,,,,,,,
10/12/2018 18:00,-113,,,,,,,,,,,,,,,,,
10/12/2018 19:00,-113,,,,,,,,,,,,,,,,,
10/12/2018 20:00,-95,,,,,,,,,,,,,,,,,
10/12/2018 21:00,-122,,,,,,,,,,,,,,,,,
10/12/2018 22:00,-132,,,,,,,,,,,,,,,,,
10/12/2018 23:00,-73,,,,,,,,,,,,,,,,,
10/13/2018 0:00,-54,,,,,,,,,,,,,,,,,
10/13/2018 1:00,-63,,,,,,,,,,,,,,,,,
10/13/2018 2:00,-70,,,,,,,,,,,,,,,,,
10/13/2018 3:00,-68,,,,,,,,,,,,,,,,,
10/13/2018 4:00,-76,,,,,,,,,,,,,,,,,
10/13/2018 5:00,-83,,,,,,,,,,,,,,,,,
10/13/2018 6:00,-96,,,,,,,,,,,,,,,,,
10/13/2018 7:00,-99,,,,,,,,,,,,,,,,,
10/13/2018 8:00,-77,,,,,,,,,,,,,,,,,
10/13/2018 9:00,-71,,,,,,,,,,,,,,,,,
10/13/2018 10:00,-113,,,,,,,,,,,,,,,,,
10/13/2018 11:00,-142,,,,,,,,,,,,,,,,,
10/13/2018 12:00,-138,,,,,,,,,,,,,,,,,
10/13/2018 13:00,-91,,,,,,,,,,,,,,,,,
10/13/2018 14:00,-63,,,,,,,,,,,,,,,,,
10/13/2018 15:00,-63,,,,,,,,,,,,,,,,,
10/13/2018 16:00,-71,,,,,,,,,,,,,,,,,
10/13/2018 17:00,-73,,,,,,,,,,,,,,,,,
10/13/2018 18:00,-74,,,,,,,,,,,,,,,,,
10/13/2018 19:00,-73,,,,,,,,,,,,,,,,,
10/13/2018 20:00,-99,,,,,,,,,,,,,,,,,
10/13/2018 21:00,-125,,,,,,,,,,,,,,,,,
10/13/2018 22:00,-102,,,,,,,,,,,,,,,,,
10/13/2018 23:00,-53,,,,,,,,,,,,,,,,,
10/14/2018 0:00,-76,,,,,,,,,,,,,,,,,
10/14/2018 1:00,-82,,,,,,,,,,,,,,,,,
10/14/2018 2:00,-98,,,,,,,,,,,,,,,,,
10/14/2018 3:00,-114,,,,,,,,,,,,,,,,,
10/14/2018 4:00,-115,,,,,,,,,,,,,,,,,
10/14/2018 5:00,-77,,,,,,,,,,,,,,,,,
10/14/2018 6:00,-72,,,,,,,,,,,,,,,,,
10/14/2018 7:00,-76,,,,,,,,,,,,,,,,,
10/14/2018 8:00,-101,,,,,,,,,,,,,,,,,
10/14/2018 9:00,-101,,,,,,,,,,,,,,,,,
10/14/2018 10:00,-100,,,,,,,,,,,,,,,,,
10/14/2018 11:00,-97,,,,,,,,,,,,,,,,,
10/14/2018 12:00,-158,,,,,,,,,,,,,,,,,
10/14/2018 13:00,-160,,,,,,,,,,,,,,,,,
10/14/2018 14:00,-155,,,,,,,,,,,,,,,,,
10/14/2018 15:00,-151,,,,,,,,,,,,,,,,,
10/14/2018 16:00,-150,,,,,,,,,,,,,,,,,
10/14/2018 17:00,-153,,,,,,,,,,,,,,,,,
10/14/2018 18:00,-161,,,,,,,,,,,,,,,,,
10/14/2018 19:00,-167,,,,,,,,,,,,,,,,,
10/14/2018 20:00,-156,,,,,,,,,,,,,,,,,
10/14/2018 21:00,-135,,,,,,,,,,,,,,,,,
10/14/2018 22:00,-110,,,,,,,,,,,,,,,,,
10/14/2018 23:00,-132,,,,,,,,,,,,,,,,,
10/15/2018 0:00,-129,,,,,,,,,,,,,,,,,
10/15/2018 1:00,-110,,,,,,,,,,,,,,,,,
10/15/2018 2:00,-112,,,,,,,,,,,,,,,,,
10/15/2018 3:00,-111,,,,,,,,,,,,,,,,,
10/15/2018 4:00,-116,,,,,,,,,,,,,,,,,
10/15/2018 5:00,-76,,,,,,,,,,,,,,,,,
10/15/2018 6:00,-63,,,,,,,,,,,,,,,,,
10/15/2018 7:00,-75,,,,,,,,,,,,,,,,,
10/15/2018 8:00,-159,,,,,,,,,,,,,,,,,
10/15/2018 9:00,-141,,,,,,,,,,,,,,,,,
10/15/2018 10:00,-146,,,,,,,,,,,,,,,,,
10/15/2018 11:00,-145,,,,,,,,,,,,,,,,,
10/15/2018 12:00,-157,,,,,,,,,,,,,,,,,
10/15/2018 13:00,-163,,,,,,,,,,,,,,,,,
10/15/2018 14:00,-161,,,,,,,,,,,,,,,,,
10/15/2018 15:00,-168,,,,,,,,,,,,,,,,,
10/15/2018 16:00,-139,,,,,,,,,,,,,,,,,
10/15/2018 17:00,-105,,,,,,,,,,,,,,,,,
10/15/2018 18:00,-55,,,,,,,,,,,,,,,,,
10/15/2018 19:00,-41,,,,,,,,,,,,,,,,,
10/15/2018 20:00,-41,,,,,,,,,,,,,,,,,
10/15/2018 21:00,-52,,,,,,,,,,,,,,,,,
10/15/2018 22:00,-65,,,,,,,,,,,,,,,,,
10/15/2018 23:00,-66,,,,,,,,,,,,,,,,,
10/16/2018 0:00,-38,,,,,,,,,,,,,,,,,
10/16/2018 1:00,43,,,,,,,,,,,,,,,,,
10/16/2018 2:00,37,,,,,,,,,,,,,,,,,
10/16/2018 3:00,53,,,,,,,,,,,,,,,,,
10/16/2018 4:00,58,,,,,,,,,,,,,,,,,
10/16/2018 5:00,48,,,,,,,,,,,,,,,,,
10/16/2018 6:00,47,,,,,,,,,,,,,,,,,
10/16/2018 7:00,-37,,,,,,,,,,,,,,,,,
10/16/2018 8:00,-81,,,,,,,,,,,,,,,,,
10/16/2018 9:00,-88,,,,,,,,,,,,,,,,,
10/16/2018 10:00,-94,,,,,,,,,,,,,,,,,
10/16/2018 11:00,-93,,,,,,,,,,,,,,,,,
10/16/2018 12:00,-94,,,,,,,,,,,,,,,,,
10/16/2018 13:00,-68,,,,,,,,,,,,,,,,,
10/16/2018 14:00,-92,,,,,,,,,,,,,,,,,
10/16/2018 15:00,-90,,,,,,,,,,,,,,,,,
10/16/2018 16:00,-86,,,,,,,,,,,,,,,,,
10/16/2018 17:00,-95,,,,,,,,,,,,,,,,,
10/16/2018 18:00,-98,,,,,,,,,,,,,,,,,
10/16/2018 19:00,-103,,,,,,,,,,,,,,,,,
10/16/2018 20:00,-85,,,,,,,,,,,,,,,,,
10/16/2018 21:00,-86,,,,,,,,,,,,,,,,,
10/16/2018 22:00,-87,,,,,,,,,,,,,,,,,
10/16/2018 23:00,-57,,,,,,,,,,,,,,,,,
10/17/2018 0:00,-62,,,,,,,,,,,,,,,,,
10/17/2018 1:00,-119,,,,,,,,,,,,,,,,,
10/17/2018 2:00,-67,,,,,,,,,,,,,,,,,
10/17/2018 3:00,-69,,,,,,,,,,,,,,,,,
10/17/2018 4:00,-70,,,,,,,,,,,,,,,,,
10/17/2018 5:00,-70,,,,,,,,,,,,,,,,,
10/17/2018 6:00,-62,,,,,,,,,,,,,,,,,
10/17/2018 7:00,-80,,,,,,,,,,,,,,,,,
10/17/2018 8:00,-160,,,,,,,,,,,,,,,,,
10/17/2018 9:00,-177,,,,,,,,,,,,,,,,,
10/17/2018 10:00,-150,,,,,,,,,,,,,,,,,
10/17/2018 11:00,-166,,,,,,,,,,,,,,,,,
10/17/2018 12:00,-170,,,,,,,,,,,,,,,,,
10/17/2018 13:00,-179,,,,,,,,,,,,,,,,,
10/17/2018 14:00,-178,,,,,,,,,,,,,,,,,
10/17/2018 15:00,-153,,,,,,,,,,,,,,,,,
10/17/2018 16:00,-182,,,,,,,,,,,,,,,,,
10/17/2018 17:00,-169,,,,,,,,,,,,,,,,,
10/17/2018 18:00,-142,,,,,,,,,,,,,,,,,
10/17/2018 19:00,-152,,,,,,,,,,,,,,,,,
10/17/2018 20:00,-141,,,,,,,,,,,,,,,,,
10/17/2018 21:00,-112,,,,,,,,,,,,,,,,,
10/17/2018 22:00,-108,,,,,,,,,,,,,,,,,
10/17/2018 23:00,-102,,,,,,,,,,,,,,,,,
10/18/2018 0:00,-153,,,,,,,,,,,,,,,,,
10/18/2018 1:00,-52,,,,,,,,,,,,,,,,,
10/18/2018 2:00,-83,,,,,,,,,,,,,,,,,
10/18/2018 3:00,-76,,,,,,,,,,,,,,,,,
10/18/2018 4:00,-87,,,,,,,,,,,,,,,,,
10/18/2018 5:00,-90,,,,,,,,,,,,,,,,,
10/18/2018 6:00,-60,,,,,,,,,,,,,,,,,
10/18/2018 7:00,-45,,,,,,,,,,,,,,,,,
10/18/2018 8:00,-38,,,,,,,,,,,,,,,,,
10/18/2018 9:00,-40,,,,,,,,,,,,,,,,,
10/18/2018 10:00,-17,,,,,,,,,,,,,,,,,
10/18/2018 11:00,-30,,,,,,,,,,,,,,,,,
10/18/2018 12:00,-24,,,,,,,,,,,,,,,,,
10/18/2018 13:00,-24,,,,,,,,,,,,,,,,,
10/18/2018 14:00,-26,,,,,,,,,,,,,,,,,
10/18/2018 15:00,-23,,,,,,,,,,,,,,,,,
10/18/2018 16:00,-34,,,,,,,,,,,,,,,,,
10/18/2018 17:00,-36,,,,,,,,,,,,,,,,,
10/18/2018 18:00,-36,,,,,,,,,,,,,,,,,
10/18/2018 19:00,-33,,,,,,,,,,,,,,,,,
10/18/2018 20:00,-35,,,,,,,,,,,,,,,,,
10/18/2018 21:00,-27,,,,,,,,,,,,,,,,,
10/18/2018 22:00,-22,,,,,,,,,,,,,,,,,
10/18/2018 23:00,-21,,,,,,,,,,,,,,,,,
10/19/2018 0:00,-42,,,,,,,,,,,,,,,,,
10/19/2018 1:00,-13,,,,,,,,,,,,,,,,,
10/19/2018 2:00,-10,,,,,,,,,,,,,,,,,
10/19/2018 3:00,-14,,,,,,,,,,,,,,,,,
10/19/2018 4:00,-15,,,,,,,,,,,,,,,,,
10/19/2018 5:00,-17,,,,,,,,,,,,,,,,,
10/19/2018 6:00,-49,,,,,,,,,,,,,,,,,
10/19/2018 7:00,-87,,,,,,,,,,,,,,,,,
10/19/2018 8:00,-150,,,,,,,,,,,,,,,,,
10/19/2018 9:00,-142,,,,,,,,,,,,,,,,,
10/19/2018 10:00,-143,,,,,,,,,,,,,,,,,
10/19/2018 11:00,-149,,,,,,,,,,,,,,,,,
10/19/2018 12:00,-147,,,,,,,,,,,,,,,,,
10/19/2018 13:00,-141,,,,,,,,,,,,,,,,,
10/19/2018 14:00,-142,,,,,,,,,,,,,,,,,
10/19/2018 15:00,-150,,,,,,,,,,,,,,,,,
10/19/2018 16:00,-150,,,,,,,,,,,,,,,,,
10/19/2018 17:00,-144,,,,,,,,,,,,,,,,,
10/19/2018 18:00,-150,,,,,,,,,,,,,,,,,
10/19/2018 19:00,-149,,,,,,,,,,,,,,,,,
10/19/2018 20:00,-143,,,,,,,,,,,,,,,,,
10/19/2018 21:00,-144,,,,,,,,,,,,,,,,,
10/19/2018 22:00,-150,,,,,,,,,,,,,,,,,
10/19/2018 23:00,-106,,,,,,,,,,,,,,,,,
10/20/2018 0:00,-70,,,,,,,,,,,,,,,,,
10/20/2018 1:00,-49,,,,,,,,,,,,,,,,,
10/20/2018 2:00,-5,,,,,,,,,,,,,,,,,
10/20/2018 3:00,-3,,,,,,,,,,,,,,,,,
10/20/2018 4:00,-7,,,,,,,,,,,,,,,,,
10/20/2018 5:00,-6,,,,,,,,,,,,,,,,,
10/20/2018 6:00,18,,,,,,,,,,,,,,,,,
10/20/2018 7:00,-36,,,,,,,,,,,,,,,,,
10/20/2018 8:00,-45,,,,,,,,,,,,,,,,,
10/20/2018 9:00,-35,,,,,,,,,,,,,,,,,
10/20/2018 10:00,-5,,,,,,,,,,,,,,,,,
10/20/2018 11:00,-32,,,,,,,,,,,,,,,,,
10/20/2018 12:00,-37,,,,,,,,,,,,,,,,,
10/20/2018 13:00,-35,,,,,,,,,,,,,,,,,
10/20/2018 14:00,-36,,,,,,,,,,,,,,,,,
10/20/2018 15:00,-36,,,,,,,,,,,,,,,,,
10/20/2018 16:00,-32,,,,,,,,,,,,,,,,,
10/20/2018 17:00,-64,,,,,,,,,,,,,,,,,
10/20/2018 18:00,-65,,,,,,,,,,,,,,,,,
10/20/2018 19:00,-66,,,,,,,,,,,,,,,,,
10/20/2018 20:00,-46,,,,,,,,,,,,,,,,,
10/20/2018 21:00,-67,,,,,,,,,,,,,,,,,
10/20/2018 22:00,-63,,,,,,,,,,,,,,,,,
10/20/2018 23:00,-63,,,,,,,,,,,,,,,,,
10/21/2018 0:00,-56,,,,,,,,,,,,,,,,,
10/21/2018 1:00,-31,,,,,,,,,,,,,,,,,
10/21/2018 2:00,-54,,,,,,,,,,,,,,,,,
10/21/2018 3:00,-94,,,,,,,,,,,,,,,,,
10/21/2018 4:00,-95,,,,,,,,,,,,,,,,,
10/21/2018 5:00,-93,,,,,,,,,,,,,,,,,
10/21/2018 6:00,-23,,,,,,,,,,,,,,,,,
10/21/2018 7:00,-24,,,,,,,,,,,,,,,,,
10/21/2018 8:00,-71,,,,,,,,,,,,,,,,,
10/21/2018 9:00,-128,,,,,,,,,,,,,,,,,
10/21/2018 10:00,-168,,,,,,,,,,,,,,,,,
10/21/2018 11:00,-169,,,,,,,,,,,,,,,,,
10/21/2018 12:00,-169,,,,,,,,,,,,,,,,,
10/21/2018 13:00,-163,,,,,,,,,,,,,,,,,
10/21/2018 14:00,-164,,,,,,,,,,,,,,,,,
10/21/2018 15:00,-163,,,,,,,,,,,,,,,,,
10/21/2018 16:00,-123,,,,,,,,,,,,,,,,,
10/21/2018 17:00,-133,,,,,,,,,,,,,,,,,
10/21/2018 18:00,-63,,,,,,,,,,,,,,,,,
10/21/2018 19:00,-64,,,,,,,,,,,,,,,,,
10/21/2018 20:00,-64,,,,,,,,,,,,,,,,,
10/21/2018 21:00,-70,,,,,,,,,,,,,,,,,
10/21/2018 22:00,-29,,,,,,,,,,,,,,,,,
10/21/2018 23:00,-24,,,,,,,,,,,,,,,,,
10/22/2018 0:00,-89,,,,,,,,,,,,,,,,,
10/22/2018 1:00,-64,,,,,,,,,,,,,,,,,
10/22/2018 2:00,-71,,,,,,,,,,,,,,,,,
10/22/2018 3:00,-42,,,,,,,,,,,,,,,,,
10/22/2018 4:00,-36,,,,,,,,,,,,,,,,,
10/22/2018 5:00,-35,,,,,,,,,,,,,,,,,
10/22/2018 6:00,-36,,,,,,,,,,,,,,,,,
10/22/2018 7:00,-48,,,,,,,,,,,,,,,,,
10/22/2018 8:00,-173,,,,,,,,,,,,,,,,,
10/22/2018 9:00,-216,,,,,,,,,,,,,,,,,
10/22/2018 10:00,-222,,,,,,,,,,,,,,,,,
10/22/2018 11:00,-181,,,,,,,,,,,,,,,,,
10/22/2018 12:00,-175,,,,,,,,,,,,,,,,,
10/22/2018 13:00,-233,,,,,,,,,,,,,,,,,
10/22/2018 14:00,-214,,,,,,,,,,,,,,,,,
10/22/2018 15:00,-178,,,,,,,,,,,,,,,,,
10/22/2018 16:00,-172,,,,,,,,,,,,,,,,,
10/22/2018 17:00,-177,,,,,,,,,,,,,,,,,
10/22/2018 18:00,-166,,,,,,,,,,,,,,,,,
10/22/2018 19:00,-141,,,,,,,,,,,,,,,,,
10/22/2018 20:00,-93,,,,,,,,,,,,,,,,,
10/22/2018 21:00,-153,,,,,,,,,,,,,,,,,
10/22/2018 22:00,-148,,,,,,,,,,,,,,,,,
10/22/2018 23:00,-56,,,,,,,,,,,,,,,,,
10/23/2018 0:00,-54,,,,,,,,,,,,,,,,,
10/23/2018 1:00,-64,,,,,,,,,,,,,,,,,
10/23/2018 2:00,-72,,,,,,,,,,,,,,,,,
10/23/2018 3:00,-91,,,,,,,,,,,,,,,,,
10/23/2018 4:00,-90,,,,,,,,,,,,,,,,,
10/23/2018 5:00,-95,,,,,,,,,,,,,,,,,
10/23/2018 6:00,-113,,,,,,,,,,,,,,,,,
10/23/2018 7:00,-173,,,,,,,,,,,,,,,,,
10/23/2018 8:00,-130,,,,,,,,,,,,,,,,,
10/23/2018 9:00,-124,,,,,,,,,,,,,,,,,
10/23/2018 10:00,-101,,,,,,,,,,,,,,,,,
10/23/2018 11:00,-100,,,,,,,,,,,,,,,,,
10/23/2018 12:00,-98,,,,,,,,,,,,,,,,,
10/23/2018 13:00,-118,,,,,,,,,,,,,,,,,
10/23/2018 14:00,-122,,,,,,,,,,,,,,,,,
10/23/2018 15:00,-122,,,,,,,,,,,,,,,,,
10/23/2018 16:00,-148,,,,,,,,,,,,,,,,,
10/23/2018 17:00,-141,,,,,,,,,,,,,,,,,
10/23/2018 18:00,-118,,,,,,,,,,,,,,,,,
10/23/2018 19:00,-124,,,,,,,,,,,,,,,,,
10/23/2018 20:00,-107,,,,,,,,,,,,,,,,,
10/23/2018 21:00,-115,,,,,,,,,,,,,,,,,
10/23/2018 22:00,-142,,,,,,,,,,,,,,,,,
10/23/2018 23:00,-128,,,,,,,,,,,,,,,,,
10/24/2018 0:00,-31,,,,,,,,,,,,,,,,,
10/24/2018 1:00,7,,,,,,,,,,,,,,,,,
10/24/2018 2:00,-18,,,,,,,,,,,,,,,,,
10/24/2018 3:00,-18,,,,,,,,,,,,,,,,,
10/24/2018 4:00,22,,,,,,,,,,,,,,,,,
10/24/2018 5:00,-6,,,,,,,,,,,,,,,,,
10/24/2018 6:00,-30,,,,,,,,,,,,,,,,,
10/24/2018 7:00,-17,,,,,,,,,,,,,,,,,
10/24/2018 8:00,-17,,,,,,,,,,,,,,,,,
10/24/2018 9:00,-38,,,,,,,,,,,,,,,,,
10/24/2018 10:00,-57,,,,,,,,,,,,,,,,,
10/24/2018 11:00,-102,,,,,,,,,,,,,,,,,
10/24/2018 12:00,-97,,,,,,,,,,,,,,,,,
10/24/2018 13:00,-44,,,,,,,,,,,,,,,,,
10/24/2018 14:00,-64,,,,,,,,,,,,,,,,,
10/24/2018 15:00,-82,,,,,,,,,,,,,,,,,
10/24/2018 16:00,-92,,,,,,,,,,,,,,,,,
10/24/2018 17:00,-124,,,,,,,,,,,,,,,,,
10/24/2018 18:00,-163,,,,,,,,,,,,,,,,,
10/24/2018 19:00,-168,,,,,,,,,,,,,,,,,
10/24/2018 20:00,-163,,,,,,,,,,,,,,,,,
10/24/2018 21:00,-162,,,,,,,,,,,,,,,,,
10/24/2018 22:00,-169,,,,,,,,,,,,,,,,,
10/24/2018 23:00,-97,,,,,,,,,,,,,,,,,
10/25/2018 0:00,-93,,,,,,,,,,,,,,,,,
10/25/2018 1:00,-49,,,,,,,,,,,,,,,,,
10/25/2018 2:00,-53,,,,,,,,,,,,,,,,,
10/25/2018 3:00,-59,,,,,,,,,,,,,,,,,
10/25/2018 4:00,-25,,,,,,,,,,,,,,,,,
10/25/2018 5:00,-95,,,,,,,,,,,,,,,,,
10/25/2018 6:00,-73,,,,,,,,,,,,,,,,,
10/25/2018 7:00,-104,,,,,,,,,,,,,,,,,
10/25/2018 8:00,-103,,,,,,,,,,,,,,,,,
10/25/2018 9:00,-107,,,,,,,,,,,,,,,,,
10/25/2018 10:00,-68,,,,,,,,,,,,,,,,,
10/25/2018 11:00,-75,,,,,,,,,,,,,,,,,
10/25/2018 12:00,-107,,,,,,,,,,,,,,,,,
10/25/2018 13:00,-107,,,,,,,,,,,,,,,,,
10/25/2018 14:00,-112,,,,,,,,,,,,,,,,,
10/25/2018 15:00,-104,,,,,,,,,,,,,,,,,
10/25/2018 16:00,-82,,,,,,,,,,,,,,,,,
10/25/2018 17:00,-84,,,,,,,,,,,,,,,,,
10/25/2018 18:00,-82,,,,,,,,,,,,,,,,,
10/25/2018 19:00,-77,,,,,,,,,,,,,,,,,
10/25/2018 20:00,-71,,,,,,,,,,,,,,,,,
10/25/2018 21:00,-83,,,,,,,,,,,,,,,,,
10/25/2018 22:00,-27,,,,,,,,,,,,,,,,,
10/25/2018 23:00,-30,,,,,,,,,,,,,,,,,
10/26/2018 0:00,-30,,,,,,,,,,,,,,,,,
10/26/2018 1:00,-11,,,,,,,,,,,,,,,,,
10/26/2018 2:00,30,,,,,,,,,,,,,,,,,
10/26/2018 3:00,15,,,,,,,,,,,,,,,,,
10/26/2018 4:00,23,,,,,,,,,,,,,,,,,
10/26/2018 5:00,28,,,,,,,,,,,,,,,,,
10/26/2018 6:00,28,,,,,,,,,,,,,,,,,
10/26/2018 7:00,-10,,,,,,,,,,,,,,,,,
10/26/2018 8:00,-11,,,,,,,,,,,,,,,,,
10/26/2018 9:00,-20,,,,,,,,,,,,,,,,,
10/26/2018 10:00,-9,,,,,,,,,,,,,,,,,
10/26/2018 11:00,-30,,,,,,,,,,,,,,,,,
10/26/2018 12:00,-50,,,,,,,,,,,,,,,,,
10/26/2018 13:00,-42,,,,,,,,,,,,,,,,,
10/26/2018 14:00,-41,,,,,,,,,,,,,,,,,
10/26/2018 15:00,-72,,,,,,,,,,,,,,,,,